TimeEST,TemperatureF,Dew PointF,Humidity,Sea Level PressureIn,VisibilityMPH,Wind Direction,Wind SpeedMPH,Gust SpeedMPH,PrecipitationIn,Events,Conditions,WindDirDegrees,DateUTC
12:53 AM,23.0,21.0,92,30.27,10.0,Calm,Calm,-,N/A,,Clear,0,2012-11-20 05:53:00
1:53 AM,21.9,21.0,96,30.26,10.0,Calm,Calm,-,N/A,,Clear,0,2012-11-20 06:53:00
2:53 AM,21.9,19.0,89,30.25,10.0,Calm,Calm,-,N/A,,Clear,0,2012-11-20 07:53:00
3:53 AM,19.0,17.1,92,30.25,10.0,Calm,Calm,-,N/A,,Clear,0,2012-11-20 08:53:00
4:53 AM,19.9,19.0,96,30.24,10.0,Calm,Calm,-,N/A,,Clear,0,2012-11-20 09:53:00
5:53 AM,19.0,16.0,88,30.24,10.0,Calm,Calm,-,N/A,,Partly Cloudy,0,2012-11-20 10:53:00
6:53 AM,19.0,17.1,92,30.24,6.0,Calm,Calm,-,N/A,,Clear,0,2012-11-20 11:53:00
7:53 AM,25.0,21.9,88,30.25,10.0,Calm,Calm,-,N/A,,Clear,0,2012-11-20 12:53:00
8:53 AM,30.0,26.1,85,30.24,10.0,Calm,Calm,-,N/A,,Clear,0,2012-11-20 13:53:00
9:53 AM,35.1,25.0,67,30.24,10.0,North,3.5,-,N/A,,Clear,350,2012-11-20 14:53:00
10:53 AM,39.9,27.0,60,30.21,10.0,North,5.8,-,N/A,,Partly Cloudy,10,2012-11-20 15:53:00
11:53 AM,42.1,25.0,51,30.19,10.0,North,5.8,-,N/A,,Partly Cloudy,350,2012-11-20 16:53:00
12:53 PM,45.0,25.0,46,30.17,10.0,North,5.8,-,N/A,,Clear,360,2012-11-20 17:53:00
1:53 PM,46.0,24.1,42,30.16,10.0,North,5.8,-,N/A,,Clear,10,2012-11-20 18:53:00
2:53 PM,46.0,25.0,44,30.17,10.0,North,8.1,-,N/A,,Clear,10,2012-11-20 19:53:00
3:53 PM,37.9,25.0,60,30.17,10.0,Calm,Calm,-,N/A,,Partly Cloudy,0,2012-11-20 20:53:00
4:53 PM,33.1,25.0,72,30.18,10.0,Calm,Calm,-,N/A,,Partly Cloudy,0,2012-11-20 21:53:00
5:53 PM,28.0,23.0,81,30.19,10.0,Calm,Calm,-,N/A,,Partly Cloudy,0,2012-11-20 22:53:00
6:53 PM,28.0,23.0,81,30.20,10.0,Calm,Calm,-,N/A,,Partly Cloudy,0,2012-11-20 23:53:00
7:53 PM,25.0,21.9,88,30.20,10.0,Calm,Calm,-,N/A,,Scattered Clouds,0,2012-11-21 00:53:00
8:53 PM,25.0,23.0,92,30.21,10.0,Calm,Calm,-,N/A,,Scattered Clouds,0,2012-11-21 01:53:00
9:53 PM,25.0,21.0,85,30.21,10.0,NNW,3.5,-,N/A,,Mostly Cloudy,340,2012-11-21 02:53:00
10:53 PM,28.0,23.0,81,30.22,10.0,Calm,Calm,-,N/A,,Mostly Cloudy,0,2012-11-21 03:53:00
11:53 PM,27.0,23.0,85,30.22,10.0,NNW,3.5,-,N/A,,Scattered Clouds,340,2012-11-21 04:53:00